Location: G�ppingen
(48.7089°N, 9.6563°E)
Time: 20:25:03
(UTC+01:00)

ISS - Pass Details

Date: 28 October 2019
Orbit: 412 x 421 km, 51.6° (Epoch: 14 November)

Event Time Altitude Azimuth Distance (km) Brightness Sun altitude
Exits shadow 04:10:42 12° 122° (ESE) 1,394 -0.6 -28.5°
Drops below altitude 10° 04:11:31 10° 109° (ESE) 1,506 -0.3 -28.4°
Sets 04:14:44 0° 77° (ENE) 2,427 1.4 -27.8°
